Regional Weather Roundup
Issued by NWS Cleveland, OH

Home | Current Version | Previous Version | Text Only | Print | Product List | Glossary On
Versions: 1 2 3 4 5 6 7 8 9 10 11 12 13 14 15 16 17 18 19 20 21 22 23 24 25 26 27 28 29 30 31 32 33 34 35 36 37 38 39 40 41 42 43 44 45 46 47 48 49 50
000
ASUS41 KCLE 040010
RWRCLE
OHIO REGIONAL WEATHER ROUNDUP
NATIONAL WEATHER SERVICE CLEVELAND, OH
800 PM EDT FRI JUL 03 2015

NOTE: "FAIR" INDICATES FEW OR NO CLOUDS BELOW 12,000 FEET WITH NO
SIGNIFICANT WEATHER AND/OR OBSTRUCTIONS TO VISIBILITY.

OHZ001>008-015>018-024>027-034-035-043-044-040100-
   NORTHWEST OHIO

CITY           SKY/WX    TMP DP  RH WIND       PRES   REMARKS
DEFIANCE       MOSUNNY   73  57  57 E5        29.91R
FINDLAY        MOSUNNY   71  54  54 NE12      29.90S
TOLEDO EXPRESS SUNNY     70  53  54 NE8       29.91S
TOLEDO EXEC    SUNNY     70  50  49 E7        29.92F
LIMA           MOSUNNY   70  59  68 N9        29.90S
$$

OHZ009>014-019>023-028>033-038-089-040100-
   NORTHEAST OHIO

CITY           SKY/WX    TMP DP  RH WIND       PRES   REMARKS
CLE-HOPKINS    MOCLDY    69  54  58 NE13      29.92F
CLE-LAKEFRONT  MOCLDY    69  57  65 NE13      29.90S
CUY CO. ARPT   MOCLDY    70  55  60 NE12      29.92S
LORAIN-ELYRIA  PTSUNNY   67  56  67 NE8       29.92R
ASHTABULA      MOCLDY    67  51  56 NE6       29.94R
AKRON-CANTON   CLOUDY    73  59  61 NE6       29.89F
WOOSTER        CLOUDY    71  58  63 N6        29.91R
MANSFIELD      PTSUNNY   71  59  65 N12       29.91S
YOUNGSTOWN     CLOUDY    72  58  61 N6        29.90S
$$

OHZ042-051>053-060>062-070>072-077>081-040100-
  SOUTHWEST OHIO

CITY           SKY/WX    TMP DP  RH WIND       PRES   REMARKS
CINC-COVINGTON CLOUDY    73  64  73 E10       29.87R
CINC-LUNKEN    PTSUNNY   72  65  78 MISG      29.87S
HAMILTON       LGT RAIN  71  65  81 E5        29.88S
DAYTON         CLOUDY    71  66  84 NE3       29.89F
WRIGHT-PAT AFB CLOUDY    71  64  78 N6        29.88S
DAYTON GENERAL PTSUNNY   71  63  75 NE6       29.87F
WILMINGTON     PTSUNNY   68  63  84 E5        29.87F
$$

OHZ036-037-039>041-045>050-054>059-063>069-073>076-082>088-040100-
  CENTRAL AND SOUTHEAST OHIO

CITY           SKY/WX    TMP DP  RH WIND       PRES   REMARKS
COLUMBUS       LGT RAIN  70  65  84 SE6       29.88R
OSU AIRPORT    PTSUNNY   71  64  78 E5        29.89R
BOLTON FIELD   PTSUNNY   71  65  82 E5        29.89S
RICKENBACK AFB CLOUDY    69  65  89 E3        29.88S
NEWARK         LGT RAIN  70  65  84 CALM      29.89R
MARION         PTSUNNY   73  60  63 NE9       29.90R
LANCASTER      CLOUDY    69  64  84 CALM      29.89S
ZANESVILLE     NOT AVBL
NEW PHILLY     CLOUDY    72  63  73 SE5       29.89R
$$



USA.gov is the U.S. government's official web portal to all federal, state and local government web resources and services.